BILKA UKFF-UKFF

Flight info

Callsign BILKA
Flight time 0h 13m
Altitude 21000
Route SORON M986 SLV
Aircraft L29/M-SDE2E3FGHIRWXY/LB1

Departure

Time 2026-04-19 20:48
Airport Simferopol International Airport (UKFF)

Arrival

Time 2026-04-19 21:02
Airport Simferopol International Airport (UKFF)
Time Latitude Longitude Altitude Speed Heading
2026-04-19 20:45 45.03418 33.98568 614 ft 0 kts 277°
2026-04-19 20:46 45.03743 33.96731 592 ft 0 kts 277°
2026-04-19 20:46 45.03747 33.96823 593 ft 0 kts 22°
2026-04-19 20:47 45.03755 33.96827 593 ft 11 kts 21°
2026-04-19 20:47 45.04025 33.96938 590 ft 69 kts 11°
2026-04-19 20:47 45.04611 33.97102 652 ft 93 kts
2026-04-19 20:47 45.05192 33.97600 698 ft 118 kts 62°
2026-04-19 20:48 44.98100 34.02883 1212 ft 94 kts 69°
2026-04-19 20:48 44.97952 34.03759 1015 ft 135 kts 129°
2026-04-19 20:48 44.97620 34.04178 1227 ft 129 kts 159°
2026-04-19 20:48 44.97332 34.04295 1277 ft 137 kts 171°
2026-04-19 20:49 44.96317 34.04239 1437 ft 163 kts 202°
2026-04-19 20:49 44.95147 34.03551 1480 ft 197 kts 204°
2026-04-19 20:49 44.94893 34.03400 1491 ft 203 kts 204°
2026-04-19 20:49 44.93677 34.02697 1718 ft 217 kts 201°
2026-04-19 20:50 44.92281 34.02553 2513 ft 204 kts 151°
2026-04-19 20:50 44.90992 34.03709 2553 ft 227 kts 154°
2026-04-19 20:50 44.89601 34.03800 3375 ft 202 kts 205°
2026-04-19 20:50 44.88519 34.02356 3282 ft 227 kts 243°
2026-04-19 20:51 44.87392 34.00731 3140 ft 253 kts 206°
2026-04-19 20:51 44.85710 34.01184 2925 ft 272 kts 148°
2026-04-19 20:51 44.83988 34.01772 2809 ft 256 kts 211°
2026-04-19 20:51 44.83293 34.00165 4681 ft 179 kts 265°
2026-04-19 20:52 44.83662 33.98364 4480 ft 221 kts 300°
2026-04-19 20:52 44.84745 33.96711 4572 ft 236 kts 323°
2026-04-19 20:52 44.86034 33.95660 4632 ft 198 kts 351°
2026-04-19 20:52 44.87315 33.95786 4556 ft 165 kts
2026-04-19 20:53 44.88222 33.96046 4412 ft 164 kts 17°
2026-04-19 20:53 44.88513 33.96215 3977 ft 186 kts 25°
2026-04-19 20:53 44.89403 33.97038 2654 ft 234 kts 31°
2026-04-19 20:54 44.90835 33.97754 2573 ft 202 kts 352°
2026-04-19 20:54 44.91928 33.96911 2568 ft 172 kts 309°
2026-04-19 20:54 44.92747 33.95891 2414 ft 159 kts 359°
2026-04-19 20:54 44.93823 33.96009 2261 ft 151 kts
2026-04-19 20:55 44.94925 33.96169 1923 ft 153 kts
2026-04-19 20:55 44.95820 33.96456 2059 ft 125 kts 11°
2026-04-19 20:55 44.96598 33.96684 2075 ft 96 kts 359°
2026-04-19 20:55 44.97325 33.96716 1959 ft 122 kts 352°
2026-04-19 20:56 44.98403 33.96527 1806 ft 184 kts 346°
2026-04-19 20:56 44.99884 33.96286 1480 ft 243 kts 348°
2026-04-19 20:56 45.01489 33.96052 1440 ft 268 kts 347°
2026-04-19 20:56 45.03184 33.95539 2374 ft 262 kts 343°
2026-04-19 20:57 45.05062 33.94693 2087 ft 298 kts 334°
2026-04-19 20:57 45.07019 33.93482 1883 ft 321 kts 335°
2026-04-19 20:57 45.09047 33.93880 2420 ft 318 kts 43°
2026-04-19 20:57 45.10029 33.96723 2255 ft 333 kts 74°
2026-04-19 20:58 45.09445 33.98962 2024 ft 238 kts 168°
2026-04-19 20:58 45.08021 33.98311 1238 ft 206 kts 217°
2026-04-19 20:58 45.06890 33.97399 1035 ft 174 kts 204°
2026-04-19 20:58 45.05817 33.96925 898 ft 148 kts 182°
2026-04-19 20:59 45.05240 33.97498 975 ft 103 kts 70°
2026-04-19 20:59 45.05755 33.98001 628 ft 87 kts
2026-04-19 20:59 45.06245 33.97999 706 ft 86 kts 336°
2026-04-19 20:59 45.06524 33.97368 853 ft 84 kts 251°
2026-04-19 21:00 45.06036 33.96811 906 ft 106 kts 193°
2026-04-19 21:00 45.05272 33.96584 1044 ft 115 kts 192°
2026-04-19 21:00 45.04405 33.96427 1048 ft 135 kts 185°
2026-04-19 21:00 45.03462 33.96255 1146 ft 138 kts 186°
2026-04-19 21:01 45.03200 33.96903 809 ft 147 kts 346°
2026-04-19 21:01 45.04084 33.96943 707 ft 133 kts 11°
2026-04-19 21:01 45.04866 33.97204 585 ft 98 kts
2026-04-19 21:01 45.05428 33.97406 580 ft 54 kts 12°
2026-04-19 21:02 45.05541 33.97442 580 ft 0 kts 11°
2026-04-19 21:02 45.05591 33.97458 580 ft 30 kts 14°
2026-04-19 21:02 45.05791 33.97557 579 ft 5 kts 38°
2026-04-19 21:02 45.05798 33.97572 580 ft 4 kts 55°
2026-04-19 21:03 45.05842 33.97642 581 ft 14 kts 43°
2026-04-19 21:03 45.05912 33.97725 580 ft 11 kts 64°
2026-04-19 21:03 45.05909 33.97811 581 ft 8 kts 127°
2026-04-19 21:03 45.05853 33.97847 582 ft 11 kts 184°
2026-04-19 21:04 45.05751 33.97817 583 ft 17 kts 190°
2026-04-19 21:04 45.05607 33.97785 584 ft 24 kts 190°
2026-04-19 21:04 45.05422 33.97738 583 ft 29 kts 192°
2026-04-19 21:04 45.05202 33.97668 584 ft 34 kts 194°
2026-04-19 21:05 45.05056 33.97613 587 ft 15 kts 194°
2026-04-19 21:05 45.04952 33.97585 587 ft 14 kts 189°
2026-04-19 21:05 45.04861 33.97561 588 ft 13 kts 193°
2026-04-19 21:05 45.04774 33.97523 588 ft 12 kts 194°
2026-04-19 21:06 45.04691 33.97501 588 ft 12 kts 188°
2026-04-19 21:06 45.04605 33.97480 589 ft 14 kts 193°
2026-04-19 21:06 45.04499 33.97438 590 ft 16 kts 196°
2026-04-19 21:06 45.04382 33.97395 590 ft 17 kts 191°
2026-04-19 21:07 45.04256 33.97355 591 ft 19 kts 194°
2026-04-19 21:07 45.04117 33.97316 592 ft 20 kts 193°
2026-04-19 21:07 45.03975 33.97265 595 ft 21 kts 195°
2026-04-19 21:07 45.03831 33.97213 598 ft 20 kts 186°
2026-04-19 21:08 45.03691 33.97166 598 ft 21 kts 194°
2026-04-19 21:08 45.03595 33.97149 597 ft 12 kts 196°
2026-04-19 21:08 45.03508 33.97102 596 ft 11 kts 170°
2026-04-19 21:08 45.03411 33.97101 595 ft 4 kts 177°
2026-04-19 21:09 45.03410 33.97101 595 ft 0 kts 175°
2026-04-19 21:16 45.03395 33.97040 593 ft 13 kts 291°
2026-04-19 21:16 45.03441 33.96941 592 ft 3 kts 351°
2026-04-19 21:16 45.03479 33.96926 593 ft 8 kts 344°
2026-04-19 21:17 45.03582 33.96874 594 ft 27 kts 341°
2026-04-19 21:17 45.03745 33.96824 593 ft 0 kts
2026-04-19 21:17 45.03749 33.96824 593 ft 5 kts
2026-04-19 21:17 45.03766 33.96830 593 ft 0 kts 15°